Abadan, Iran

1:42 AM +0430 on March 26, 2017 (GMT +0430)
Abadan

Weather History for OIAA - March, 2013

Change the Weather History Date:

Wednesday, March 27, 2013

  Actual Average Record
Temperature  
Mean Temperature 72 °F -  
Max Temperature 89 °F 88 °F - ()
Min Temperature 55 °F 62 °F - ()
Cooling Degree Days 7    
Growing Degree Days 22 (Base 50)    
Moisture  
Dew Point 38 °F    
Average Humidity 32    
Maximum Humidity 67    
Minimum Humidity 4    
Precipitation  
Precipitation 0.00 in 0.02 in - ()
Sea Level Pressure  
Sea Level Pressure 29.88 in    
Wind  
Wind Speed 3 mph ()    
Max Wind Speed 9 mph    
Max Gust Speed -    
Visibility 5.4 miles    
Events      
T = Trace of Precipitation, MM = Missing Value Source: Averaged Metar Reports

Daily Weather History Graph

Daily Weather History Graph

Search for Another Location

Airport or City:

Trip Planner

Search our weather history database for the weather conditions in past years. The results will help you decide how hot, cold, wet, or windy it might be!

Date:

Astronomy

Mar. 27, 2013 Rise Set
Actual Time 7:12 AM +0430 7:32 PM +0430
Civil Twilight 6:48 AM +0430 7:56 PM +0430
Nautical Twilight 6:20 AM +0430 8:24 PM +0430
Astronomical Twilight 5:51 AM +0430 8:53 PM +0430
Moon 7:46 PM +0430 (3/27) 6:51 AM +0430 (3/27)
Length of Visible Light 13h 08m
Length of Day
12h 20m
Full, 100% of the Moon is Illuminated
Mar 27
Full
Mar 27
Full
Apr 3
Last Quarter
Apr 10
New
Apr 18
First Quarter

Hourly Weather History & Observations

Time (+0430) Temp. Dew Point Humidity Pressure Visibility Wind Dir Wind Speed Gust Speed Precip Events Conditions
12:30 AM 64.4 °F 39.2 °F 40% 29.92 in - West 4.6 mph - N/A   Clear
1:30 AM 62.6 °F 39.2 °F 42% 29.92 in - Calm Calm - N/A   Clear
2:30 AM 60.8 °F 35.6 °F 39% 29.89 in - Calm Calm - N/A   Clear
3:30 AM 59.0 °F 35.6 °F 42% 29.86 in - Calm Calm - N/A   Clear
4:30 AM 58 °F 40 °F 39% 29.89 in 6 mi Calm Calm - -  
4:30 AM 57.2 °F 39.2 °F 51% 29.86 in - Calm Calm - N/A   Clear
5:30 AM 57.2 °F 41.0 °F 55% 29.86 in - Calm Calm - N/A   Clear
6:30 AM 55.4 °F 42.8 °F 63% 29.89 in - Calm Calm - N/A   Clear
7:30 AM 55.4 °F 44.6 °F 67% 29.89 in - Calm Calm - N/A   Clear
8:30 AM 55.4 °F 44.6 °F 67% 29.92 in 4.3 mi Calm Calm - N/A   Clear
9:30 AM 64.4 °F 44.6 °F 49% 29.92 in 4.3 mi Calm Calm - N/A   Clear
10:30 AM 71 °F 46 °F 30% 29.95 in 6 mi Calm Calm - -  
10:30 AM 69.8 °F 46.4 °F 43% 29.92 in - Calm Calm - N/A   Clear
11:30 AM 77.0 °F 44.6 °F 32% 29.92 in - Calm Calm - N/A   Clear
12:30 PM 80.6 °F 39.2 °F 23% 29.92 in - SSW 4.6 mph - N/A   Clear
1:00 PM 82.4 °F 35.6 °F 19% 29.92 in - SSW 9.2 mph - N/A   Clear
1:30 PM 84.2 °F 30.2 °F 14% 29.92 in - SSW 9.2 mph - N/A   Clear
2:30 PM 86.0 °F 30.2 °F 13% 29.89 in - WSW 6.9 mph - N/A   Clear
3:30 PM 89.6 °F 28.4 °F 11% 29.86 in - SSW 6.9 mph - N/A   Clear
4:30 PM 89 °F 26 °F 4% 29.87 in 6 mi SSW 4.5 mph - -   Clear
4:30 PM 89.6 °F 26.6 °F 10% 29.86 in - SSW 4.6 mph - N/A   Clear
5:30 PM 89.6 °F 26.6 °F 10% 29.83 in - South 4.6 mph - N/A   Clear
6:30 PM 86.0 °F 30.2 °F 13% 29.83 in - South 4.6 mph - N/A   Clear
7:00 PM 84.2 °F 32.0 °F 15% 29.83 in - SSE 9.2 mph - N/A   Clear
7:30 PM 82.4 °F 32.0 °F 16% 29.83 in - SSE 6.9 mph - N/A   Clear
8:00 PM 80.6 °F 33.8 °F 18% 29.83 in - South 6.9 mph - N/A   Clear
8:30 PM 77.0 °F 37.4 °F 24% 29.83 in - South 4.6 mph - N/A   Clear
9:30 PM 77.0 °F 41.0 °F 28% 29.86 in - South 4.6 mph - N/A   Clear
10:00 PM 71.6 °F 42.8 °F 35% 29.86 in - SSE 4.6 mph - N/A   Clear
10:30 PM 71 °F 44 °F 27% 29.87 in 6 mi ESE 4.5 mph - -  
10:30 PM 71.6 °F 44.6 °F 38% 29.86 in - ESE 4.6 mph - N/A   Clear
11:00 PM 69.8 °F 46.4 °F 43% 29.86 in - SSE 6.9 mph - N/A   Clear
11:30 PM 69.8 °F 46.4 °F 43% 29.86 in - South 6.9 mph - N/A   Clear